This is the latest recevied weather packets stored in our database for station/object N2XGL-1. If no packets are shown the sender has not sent any weather packets the latest 10 day(s).
| Time | Temp. | Humidity | Pressure | Rain* | Wind** | Luminosity | Snow |
|---|---|---|---|---|---|---|---|
| 1777773388 | 17.22° C | 15% | 1010 hPa | 0 mm | - | - | - |
| 1777772801 | 17.78° C | 14% | 1010 hPa | 0 mm | - | - | - |
| 1777772373 | 18.89° C | 13% | 1009.9 hPa | 0 mm | - | - | - |
| 1777772301 | 18.89° C | 13% | 1009.9 hPa | 0 mm | - | - | - |
| 1777771713 | 19.44° C | 13% | 1009.9 hPa | 0 mm | - | - | - |
| 1777771171 | 19.44° C | 12% | 1009.8 hPa | 0 mm | - | - | - |
| 1777771133 | 19.44° C | 12% | 1009.8 hPa | 0 mm | - | - | - |
| 1777770569 | 20° C | 13% | 1009.7 hPa | 0 mm | - | - | - |
| 1777769993 | 20.56° C | 12% | 1009.6 hPa | 0 mm | - | - | - |
| 1777769408 | 20.56° C | 14% | 1009.6 hPa | 0 mm | - | - | - |
| 1777767698 | 21.11° C | 16% | 1009.7 hPa | 0 mm | - | - | - |
| 1777767198 | 21.11° C | 17% | 1009.9 hPa | 0 mm | - | - | - |
| 1777766608 | 21.11° C | 13% | 1009.9 hPa | 0 mm | - | - | - |
| 1777765484 | 21.67° C | 14% | 1009.9 hPa | 0 mm | - | - | - |
| 1777764913 | 21.67° C | 13% | 1010 hPa | 0 mm | - | - | - |
| 1777764359 | 21.67° C | 13% | 1010.1 hPa | 0 mm | - | - | - |
| 1777763301 | 22.22° C | 14% | 1010.3 hPa | 0 mm | - | - | - |
| 1777762759 | 22.22° C | 15% | 1010.3 hPa | 0 mm | - | - | - |
| 1777762161 | 22.22° C | 15% | 1010.3 hPa | 0 mm | - | - | - |
| 1777761594 | 22.22° C | 13% | 1010.4 hPa | 0 mm | - | - | - |
| 1777761034 | 22.22° C | 18% | 1010.5 hPa | 0 mm | - | - | - |
| 1777760513 | 22.78° C | 15% | 1010.7 hPa | 0 mm | - | - | - |
| 1777759963 | 23.33° C | 17% | 1010.9 hPa | 0 mm | - | - | - |
| 1777759472 | 23.33° C | 13% | 1011 hPa | 0 mm | - | - | - |
| 1777758439 | 23.33° C | 19% | 1011.3 hPa | 0 mm | - | - | - |
* Rain latest hour (hover to see other rain measurements)
** Current wind speed in m/s (hover to see current wind gust speed)